CST,Max TemperatureF,Mean TemperatureF,Min TemperatureF,Max Dew PointF,MeanDew PointF,Min DewpointF,Max Humidity, Mean Humidity, Min Humidity, Max Sea Level PressureIn, Mean Sea Level PressureIn, Min Sea Level PressureIn, Max VisibilityMiles, Mean VisibilityMiles, Min VisibilityMiles, Max Wind SpeedMPH, Mean Wind SpeedMPH, Max Gust SpeedMPH,PrecipitationIn, CloudCover, Events, WindDirDegrees
2012-11-1,73,64,53,59,53,45,97,75,41,30.09,30.02,29.98,10,9,5,8,3,,0.00,1,,304
2012-11-2,79,65,52,66,60,51,100,88,66,30.10,30.05,30.00,10,7,0,9,2,,0.01,3,Fog,253
2012-11-3,81,68,57,66,61,55,100,86,56,30.14,30.09,30.04,10,7,0,9,2,,0.01,1,Fog,243
2012-11-4,77,66,57,65,61,57,100,93,65,30.13,30.08,30.04,10,5,0,15,2,28,0.15,3,Fog-Rain-Thunderstorm,353
2012-11-5,66,60,53,60,54,46,97,81,52,30.08,29.99,29.91,10,9,2,13,4,,0.12,4,Rain,72
2012-11-6,61,53,45,54,48,44,97,83,64,30.06,30.00,29.93,10,9,5,16,9,21,0.00,4,,336
2012-11-7,66,54,43,47,41,36,97,69,32,30.16,30.06,29.98,10,9,5,17,5,25,0.01,0,,317
2012-11-8,64,50,37,46,40,35,96,72,37,30.27,30.21,30.16,10,10,7,8,3,,0.00,0,,13
2012-11-9,66,54,41,55,48,40,96,81,54,30.29,30.23,30.20,10,9,2,10,2,,0.00,0,,108
2012-11-10,72,60,48,59,54,48,100,81,57,30.27,30.22,30.18,10,8,1,17,4,23,0.00,2,,109
2012-11-11,75,69,63,64,61,57,90,72,60,30.20,30.16,30.13,10,10,10,21,14,29,0.00,3,,132
2012-11-12,69,60,48,66,56,38,100,85,66,30.33,30.22,30.11,10,8,1,23,9,30,0.51,6,Rain,2
2012-11-13,60,50,39,38,32,27,74,53,32,30.38,30.32,30.25,10,10,10,16,12,29,0.00,0,,6
2012-11-14,64,52,41,42,35,32,82,60,31,30.31,30.26,30.20,10,10,10,10,6,,0.00,0,,346
2012-11-15,64,52,39,46,42,35,89,71,45,30.29,30.24,30.18,10,10,7,10,5,17,0.00,0,,14
2012-11-16,66,54,42,50,45,41,97,78,45,30.30,30.26,30.20,10,8,4,10,4,17,0.00,0,,21
2012-11-17,66,54,41,44,40,37,93,67,36,30.36,30.30,30.26,10,10,7,10,4,,0.00,0,,19
2012-11-18,68,55,42,48,41,36,87,66,40,30.32,30.28,30.24,10,10,10,9,4,,0.00,0,,23
2012-11-19,70,57,44,51,46,41,93,74,44,30.29,30.23,30.17,10,10,7,7,2,,0.00,0,,127
2012-11-20,72,59,46,51,46,40,93,74,31,30.21,30.16,30.10,10,10,8,8,1,,0.00,0,,357
2012-11-21,75,59,43,52,47,42,97,73,35,30.21,30.16,30.11,10,9,8,13,2,,0.00,0,,338
2012-11-22,71,57,43,51,48,42,97,78,45,30.25,30.20,30.17,10,8,3,8,2,,0.00,0,,176
2012-11-23,75,60,44,56,50,43,97,74,43,30.27,30.21,30.14,10,8,3,13,3,17,0.01,2,,322
2012-11-24,60,48,35,46,36,31,92,62,33,30.30,30.22,30.18,10,10,10,12,8,20,0.00,0,,354
2012-11-25,57,46,34,44,38,31,93,75,42,30.23,30.16,30.12,10,10,8,9,2,,0.00,0,,129
2012-11-26,66,54,43,62,55,41,97,89,75,30.16,30.12,30.09,10,9,7,7,2,,0.01,4,Rain,154
2012-11-27,64,58,50,62,57,48,100,92,80,30.29,30.17,30.06,10,8,2,17,5,26,0.36,7,Rain,10
2012-11-28,62,52,39,47,40,34,93,72,35,30.42,30.35,30.29,10,9,6,15,9,,0.00,3,,10
2012-11-29,63,50,37,48,42,32,93,77,57,30.37,30.31,30.26,10,10,8,10,3,17,0.00,1,,75
2012-11-30,69,58,46,59,51,44,100,89,65,30.29,30.24,30.19,10,6,0,10,2,,0.01,2,Fog,99